Location: Bretagne
(43.8474°N, 0.4650°W)
Time: 13:08:05
(UTC+00:00)

Radarsat Rocket - Pass Details

Date: 23 April 2026
Orbit: 933 x 1491 km, 100.5° (Epoch: 12 May)

Event Time Altitude Azimuth Distance (km) Brightness Sun altitude
Rises 20:35:08 0° 213° (SSW) 4,554 7.4 -16.7°
Reaches altitude 10° 20:39:05 10° 231° (SW) 3,617 7.1 -17.3°
Maximum altitude 20:44:42 19° 272° (W) 2,994 7.2 -18.0°
Drops below altitude 10° 20:50:22 10° 314° (NW) 3,615 8.2 -18.8°
Sets 20:54:21 0° 331° (NNW) 4,551 8.8 -19.4°
